Погода Гусь-Хрустальный

Погода Гусь-Хрустальный : погода сейчас, прогноз погоды и архив. Всё, что Вы хотите узнать о погоде Гусь-Хрустальный!

Хотите узнать прогноз погоды Гусь-Хрустальный? Тогда Вам сюда: Погода Гусь-Хрустальный

Поиск расширенной информации на нашем сайте:

Другие новости

Новости СМИ2

Главная страница сайта

Новости сайта

02.10.2013

Напоминаем, что на нашем новом сайте вы можете получить высокодетализированные прогнозы погоды по пунктам России, СНГ и мира (включающие важные для авиации метеовеличины, такие как направление и скорость ветра, видимость, явления погоды, количество и форма облачности, нижняя и верхняя граница облачности), а также ознакомиться с разнообразными материалами по авиационной метеорологии и подборкой полезных ссылок на эту тему.

Сайт Метеоцентр.Азия посвящён разработке технологий оптимизации авиаметеорологического обслуживания, включая проектирование и перспективное создание нескольких автоматизированных авиаметеорологических систем:
- система выпуска высокодетальных прогностических карт явлений погоды для нижнего воздушного пространства по России и ближнему зарубежью;
- система верификации прогнозов TAF (выпускаемых синоптиками официальных АМСГ РФ и ближнего зарубежья) и AUTOTAF (выпускаемых сайтом Метеоцентр.Азия) - выявление ошибок, онлайн-сопоставление с фактической погодой METAR, автоматическое внесение коррективов в прогнозы при резком отклонении фактической погоды от прогноза, подсчёт оправдываемости прогнозов по элементам и в целом;
- система обработки, анализа и отображения авиаметеорологической информации для применения провайдерами метеорологической информации.


Погода Гусь-Хрустальный - сегодня

Время (UTC), дата Ветер
(°,м/с) 
Видим.   Явления Облачность Т
(°С)
Тd
(°С)
f(%) Тe
(°С)
Pmin
(гПа)
dP
(гПа)
Po
(мм)
O2
(г/м3)
Тmin Tmax R s Состояние
почвы
09 18.01.17 270 (З) 4000 м  слаб. ливневой снег  9/9 300 м кучево-дожд. 
[Cb cap]
-5.6 -7.1 89 -7  1033.9  0.4  762  314           
12 18.01.17 270 (З) 20000 м  {ливн. осадки}  9/9 300 м кучево-дожд. 
[Cb cap]
-6 -9.8 74 -9  1033.5  -0.4  762  315           
15 18.01.17 тихо ()   20000 м    4/0 верхняя 
[Cs]
-10.7 -12.2 89 -11  1033.6  -0.2  762  321    -5.4  0.6     
18 18.01.17 250 (З) 20000 м    9/9 300 м 
[Sc]
-8.4 -10 88 -10  1032.2  -1.2  761  317           
21 18.01.17 240 (ЮЗ) 20000 м    9/9 300 м 
[Sc]
-7.4 -8.8 90 -9  1030.2  -1.9  759  315           
00 19.01.17 230 (ЮЗ) 20000 м    9/9 300 м 
[Sc]
-6.6 -8.2 88 -8  1029  -1.2  758  314           
03 19.01.17 230 (ЮЗ) 20000 м    10/10 300 м 
[Sc]
-6.3 -7.9 88 -8  1027.6  -1.4  757  313  -10.9      37  равномерный
сухой снег
100% 
06 19.01.17 230 (ЮЗ) 10 км    10/10 300 м 
[Sc]
-5.9 -6.9 93 -8  1026.1  -1.4  756  312           
09 19.01.17 230 (ЮЗ) 20000 м  {снег}  10/9 300 м средняя 
[Sc|As op]
-4.2 -7 81 -5  1023.7  -2.3  755  310           
12 19.01.17 230 (ЮЗ) 20000 м  позёмок{снег}  10/9 300 м средняя 
[Sc|As op]
-3.5 -6.7 78 -6  1021.1  -2.5  753  308           
15 19.01.17 230 (ЮЗ) 10 км  слаб. снег  10/9 300 м средняя 
[Sc|As op]
-3.8 -5.6 87 -6  1019  -2.1  751  308    -3.5  0.0     
18 19.01.17 240 (ЮЗ) 3{10}  20000 м  слаб. снег  10/9 300 м средняя 
[Sc|As op]
-3.5 -5.6 85 -6  1016.6  -2.3  749  306           
21 19.01.17 240 (ЮЗ) 20000 м  {снег}  10/9 300 м средняя 
[Sc|As op]
-3.6 -5.8 85 -6  1014.2  -2.3  748  306           
00 20.01.17 250 (З) 3{12}  20000 м  пыльная буря{снег}  10/9 300 м средняя 
[Sc|As op]
-3.7 -5.9 85 -6  1011.8  -2.3  746  305           
03 20.01.17 260 (З) 5{10}  20000 м  позёмок  10/10 300 м 
[Sc|Ns]
-3.8 -5.4 89 -7  1009.9  -1.9  744  305  -3.9    0.2  37  равномерный
сухой снег
100% 
06 20.01.17 250 (З) 4{10}  20000 м  позёмок  9/9 300 м 
[Sc]
-2.3 -4.5 85 -5  1009.5  -0.3  744  303           
09 20.01.17 280 (З) 20000 м  слаб. снег  9/9 300 м 
[Sc]
-0.1 -3.7 77 -3  1009.3  744  300           
12 20.01.17 310 (СЗ) 3{10}  20000 м  {снег}  8/6 300 м кучево-дожд., верхняя 
[Cb cap|Cs]
-0.7 -6.9 63 -3  1010.1  0.7  745  302           
15 20.01.17 290 (З) 3{12}  20000 м    4/0 верхняя 
[Cs]
-3 -9.8 59 -5  1012.1  1.8  746  305    +0.7       
18 20.01.17 280 (З) 20000 м    ясно 
-5.8 -10.9 67 -8  1012.8  0.5  747  308           
21 20.01.17 270 (З) 20000 м    ясно 
-7.4 -11.4 73 -9  1012.7  -0.2  746  310           
00 21.01.17 240 (ЮЗ) 20000 м    ясно 
-7.6 -11.1 76 -7  1010.7  -2  745  310           
03 21.01.17 250 (З) 20000 м    ясно 
-9.4 -11 88 -11  1009.3  -1.6  744  311  -9.6      37  равномерный
сухой снег
100% 
06 21.01.17 270 (З) 20000 м    8/5 300 м верхняя 
[Sc|Cs]
-8.2 -9.4 91 -10  1007.8  -1.4  743  309           
09 21.01.17 290 (З) 20000 м  {ливн. осадки}  9/9 300 м кучево-дожд. 
[Cb cap]
-5.1 -7.6 83 -6  1007.5  0.1  743  306           
Время (UTC), дата Ветер
(°,м/с) 
Видим.   Явления Облачность Т
(°С)
Тd
(°С)
f(%) Тe
(°С)
Pmin
(гПа)
dP
(гПа)
Po
(мм)
O2
(г/м3)
Тmin Tmax R s Состояние
почвы

Для получения пояснительной информации подведите курсор к названию столбца.

ПОГОДА Гусь-Хрустальный - архив

Всё, что Вы хотите узнать о погоде Гусь-Хрустальный - удобно и подробно!

Выберите нужную дату (начиная с 1 января 2015* года) и нажмите кнопку "Найти".
Будут отображены архивные сводки погоды по пункту Гусь-Хрустальный, начиная с указанной даты.


Отображать данные в формате CSV (для использования в таблицах Excel)


Внимание! Наш архив погоды предназначен исключительно для личного некоммерческого использования в познавательных целях. Если Вам необходимы официальные справки о состоянии погоды (для производственных, юридических, коммерческих и т.п. целей), обращайтесь в органы Росгидромета.

*Примечание: данная дата относится к архиву по метеостанциям СССР (Россия, СНГ, Балтия).
Архив по метеостанциям Зарубежной Европы и Азии (кроме Китая) хранится 10 дней, по другим регионам земного шара (Китай, Африка, Америка, Австралия, Океания) - 1 день.

Гусь-Хрустальный - район местоположения метеостанции


Название, широта, долгота, высота метеостанции:
Гусь-Хрустальный 55.6°ш. 40.6°д. 136 м над ур. моря [Российская Федерация]

Дополнительная информация

В oтличие oт бoльшинства пoгoдных сайтoв мы публикуем пoдрoбную метеoинфoрмацию в детальнoм прoфессиoнальнoм фoрмате.

Характеристики температуры и влажнoсти вoздуха измеряются на высoте 2 м в тени вдали oт зданий и деревьев.
Скoрoсть ветра измеряется на высoте 10 м (на урoвне рoста челoвека скoрoсть ветра ниже в 1.5-2 раза). Если метеoстанция нахoдится в гoрoде или в лесу, тo скoрoсть ветра занижена на 2-4 м/с пo сравнению с oткрытым местoм. Скoрoсть ветра над акватoриями крупных рек и oзёр, а также на вершинах хoлмoв на 2-5 м/с выше, чем в oбычных услoвиях.
Атмoсфернoе давление в разных тoчках местнoсти мoжет значительнo oтличаться oт давления на метеoстанции, в зависимoсти oт услoвий рельефа (при пoдъёме на 10 м давление пoнижается примернo на 1 мм рт.ст.).